Regional Weather Roundup
Issued by NWS Goodland, KS

Home | Current Version | Previous Version | Text Only | Print | Product List | Glossary Off
Versions: 1 2 3 4 5 6 7 8 9 10 11 12 13 14 15 16 17 18 19 20 21 22 23 24 25 26 27 28 29 30 31 32 33 34 35 36 37 38 39 40 41 42 43 44 45 46 47 48 49 50

000
ASUS43 KGLD 210008
RWRGLD

GOODLAND FORECAST AREA HOURLY WEATHER ROUNDUP
NATIONAL WEATHER SERVICE GOODLAND KS
500 PM MST FRI JAN 20 2017

...OFFICIAL OBSERVATIONS...

CITY           SKY/WX    TMP DP  RH WIND       PRES   REMARKS
GOODLAND KS    CLOUDY    35  34  96 SW9       29.40R
HILL CITY KS   CLOUDY    42  37  82 CALM      29.41R
IMPERIAL NEB   CLOUDY    39  34  82 NW7       29.37R
MCCOOK NEB     CLOUDY    38  33  82 W7        29.37S
AKRON CO       CLOUDY    37  30  75 NW8       29.40R
BURLINGTON CO  CLEAR     34  33  96 SW8       29.41R
LIMON CO       CLOUDY    35  32  88 S5        29.41R
$$

...UNOFFICIAL OBSERVATIONS...

CITY           SKY/WX    TMP DP  RH WIND       PRES   REMARKS
LENORA KS        N/A     39  32  76 CALM        N/A
NORTON KS      CLOUDY    37  34  87 CALM      29.39R
SHARON SPRINGS   N/A     34  32  94 CALM        N/A
TRENTON NEB      N/A     37  32  82 W5          N/A
KIT CARSON CO    N/A     34  31  90 CALM        N/A
YUMA CO        MOCLDY    34  32  93 W7        29.39R
$$




USA.gov is the U.S. government's official web portal to all federal, state and local government web resources and services.